Location: D�derode
(51.8092°N, 10.1065°E)
Time: 02:07:50
(UTC+00:00)

Cosmos 1812 - Pass Details

Date: 23 April 2021
Orbit: 516 x 519 km, 82.5° (Epoch: 10 May)

Event Time Altitude Azimuth Distance (km) Brightness Sun altitude
Exits shadow 23:33:41 42° 316° (NW) 751 3.7 -25.2°
Drops below altitude 10° 23:36:48 10° 0° (N) 1,767 6.4 -25.2°
Sets 23:39:01 0° 7° (N) 2,660 7.7 -25.2°
